IZ3ZOD-13 Weather Reports


time (UTC)temp
F
wind
direction
speed
knots
gust
knots
rain 1hr
in
rain 24hr
in
rain mn
in
humidity
%
barometer
mb
20260503022003 50 0 0.0 0.0 0.00 0.00 0.00 77 1019.4
20260503021814 50 0 0.0 0.0 0.00 0.00 0.00 76 1019.4
20260503021413 50 0 0.0 0.0 0.00 0.00 0.00 76 1019.3
20260503020803 50 0 0.0 0.0 0.00 0.00 0.00 76 1019.5
20260503020403 51 0 0.0 0.0 0.00 0.00 0.00 75 1019.5
20260503020217 51 0 0.0 0.0 0.00 0.00 0.00 75 1019.6
20260503015603 51 0 0.0 0.0 0.00 0.00 0.00 74 1019.4
20260503015203 51 0 0.0 0.0 0.00 0.00 0.00 74 1019.5
20260503014803 51 0 0.0 0.0 0.00 0.00 0.00 74 1019.6
20260503014403 51 0 0.0 0.0 0.00 0.00 0.00 73 1019.4
20260503014003 52 0 0.0 0.0 0.00 0.00 0.00 73 1019.5
20260503013603 52 0 0.0 0.0 0.00 0.00 0.00 72 1019.5
20260503013203 52 0 0.0 0.0 0.00 0.00 0.00 71 1019.4
20260503012803 52 0 0.0 0.0 0.00 0.00 0.00 71 1019.6
20260503012403 52 0 0.0 0.0 0.00 0.00 0.00 71 1019.6
20260503012003 52 0 0.0 0.0 0.00 0.00 0.00 72 1019.6
20260503011603 51 0 0.0 0.0 0.00 0.00 0.00 74 1019.6
20260503011203 51 0 0.0 0.0 0.00 0.00 0.00 73 1019.7
20260503010803 51 0 0.0 0.0 0.00 0.00 0.00 74 1019.6
20260503010613 51 0 0.0 0.0 0.00 0.00 0.00 74 1019.6
20260503010217 52 0 0.0 0.0 0.00 0.00 0.00 72 1019.7
20260503005603 53 0 0.0 0.0 0.00 0.00 0.00 70 1019.6
20260503005203 53 7 0.0 0.9 0.00 0.00 0.00 70 1019.6
20260503005015 53 7 0.0 0.9 0.00 0.00 0.00 70 1019.6
20260503004615 53 7 0.9 0.9 0.00 0.00 0.00 70 1019.6
20260503004003 54 13 0.9 1.7 0.00 0.00 0.00 68 1019.6
20260503003603 54 25 0.9 1.7 0.00 0.00 0.00 68 1019.6
20260503003203 53 43 0.9 1.7 0.00 0.00 0.00 69 1019.7
20260503002803 54 161 0.9 1.7 0.00 0.00 0.00 69 1019.8
20260503002403 55 190 0.0 0.9 0.00 0.00 0.00 66 1019.6
20260503002003 55 190 0.0 0.9 0.00 0.00 0.00 65 1019.7
20260503001603 55 0 0.0 0.0 0.00 0.00 0.00 65 1020.0
20260503001203 56 0 0.0 0.0 0.00 0.00 0.00 63 1019.9
20260503000803 56 0 0.0 0.0 0.00 0.00 0.00 62 1019.8
20260503000613 56 0 0.0 0.0 0.00 0.00 0.00 62 1019.8
20260503000213 56 0 0.0 0.0 0.00 0.00 0.00 62 1020.0
20260502235603 56 0 0.0 0.0 0.00 0.00 0.00 63 1020.0
20260502235203 56 0 0.0 0.0 0.00 0.00 0.00 63 1020.2
20260502234803 56 0 0.0 0.0 0.00 0.00 0.00 63 1020.0
20260502234403 56 0 0.0 0.0 0.00 0.00 0.00 63 1020.2
20260502234003 56 0 0.0 0.0 0.00 0.00 0.00 62 1020.2
20260502233603 57 190 0.0 0.9 0.00 0.00 0.00 61 1020.1
20260502233203 58 190 0.9 1.7 0.00 0.00 0.00 60 1020.2
20260502232803 58 192 0.9 1.7 0.00 0.00 0.00 58 1020.2
20260502232403 59 197 1.7 1.7 0.00 0.00 0.00 56 1020.3
20260502232003 60 201 1.7 3.5 0.00 0.00 0.00 55 1020.3
20260502231603 60 203 1.7 3.5 0.00 0.00 0.00 55 1020.5
20260502231203 60 204 2.6 3.5 0.00 0.00 0.00 54 1020.4
20260502230803 60 208 1.7 2.6 0.00 0.00 0.00 54 1020.5
20260502230403 60 210 1.7 2.6 0.00 0.00 0.00 54 1020.3
20260502230004 60 209 1.7 2.6 0.00 0.00 0.00 55 1020.4
20260502225603 60 208 1.7 2.6 0.00 0.00 0.00 54 1020.3
20260502225203 60 205 1.7 2.6 0.00 0.00 0.00 54 1020.3
20260502224803 60 202 1.7 2.6 0.00 0.00 0.00 54 1020.3
20260502224403 61 201 1.7 2.6 0.00 0.00 0.00 53 1020.5
20260502224003 61 204 1.7 3.5 0.00 0.00 0.00 53 1020.5
20260502223603 61 208 1.7 3.5 0.00 0.00 0.00 53 1020.4
20260502223203 61 211 2.6 3.5 0.00 0.00 0.00 52 1020.5
20260502222803 61 209 2.6 3.5 0.00 0.00 0.00 52 1020.3
20260502222613 61 205 1.7 3.5 0.00 0.00 0.00 53 1020.6
20260502222003 60 195 0.9 2.6 0.00 0.00 0.00 55 1020.4
20260502221817 59 194 0.9 1.7 0.00 0.00 0.00 56 1020.6
20260502221203 60 193 0.9 1.7 0.00 0.00 0.00 56 1020.6
20260502220803 59 193 0.9 1.7 0.00 0.00 0.00 56 1020.7
20260502220403 59 193 0.9 1.7 0.00 0.00 0.00 57 1020.5
20260502220004 59 193 0.9 1.7 0.00 0.00 0.00 57 1020.7
20260502215603 60 193 0.9 1.7 0.00 0.00 0.00 56 1020.6
20260502215203 60 196 1.7 1.7 0.00 0.00 0.00 55 1020.6
20260502215012 60 197 1.7 1.7 0.00 0.00 0.00 55 1020.6
20260502214617 60 201 1.7 2.6 0.00 0.00 0.00 54 1020.5
20260502214216 61 201 1.7 2.6 0.00 0.00 0.00 54 1020.7
20260502213815 61 204 1.7 2.6 0.00 0.00 0.00 54 1020.6
20260502213203 61 214 1.7 2.6 0.00 0.00 0.00 54 1020.5
20260502212803 61 203 1.7 2.6 0.00 0.00 0.00 54 1020.7
20260502212403 60 202 0.9 1.7 0.00 0.00 0.00 55 1020.6
20260502212004 60 215 0.9 1.7 0.00 0.00 0.00 55 1020.6
20260502211603 61 223 0.9 1.7 0.00 0.00 0.00 54 1020.7
20260502211203 62 223 0.0 0.9 0.00 0.00 0.00 53 1020.7
20260502210803 62 223 0.9 1.7 0.00 0.00 0.00 52 1020.5
20260502210615 62 223 0.9 1.7 0.00 0.00 0.00 52 1020.7
20260502210003 62 223 0.9 1.7 0.00 0.00 0.00 52 1020.7
20260502205603 62 223 0.9 1.7 0.00 0.00 0.00 52 1020.6
20260502205203 62 223 0.0 1.7 0.00 0.00 0.00 52 1020.7
20260502204803 62 0 0.0 0.0 0.00 0.00 0.00 53 1020.8
20260502204403 62 0 0.0 0.0 0.00 0.00 0.00 53 1020.8
20260502204003 62 0 0.0 0.0 0.00 0.00 0.00 53 1020.8
20260502203603 61 0 0.0 0.0 0.00 0.00 0.00 53 1020.7
20260502203203 61 0 0.0 0.0 0.00 0.00 0.00 53 1020.7
20260502202803 61 223 0.0 0.9 0.00 0.00 0.00 53 1020.8
20260502202403 62 223 0.9 1.7 0.00 0.00 0.00 53 1020.8
20260502202003 62 223 0.9 1.7 0.00 0.00 0.00 53 1020.8
20260502201603 62 223 0.0 1.7 0.00 0.00 0.00 52 1020.7
20260502201417 62 0 0.0 0.0 0.00 0.00 0.00 52 1020.9
20260502201017 63 0 0.0 0.0 0.00 0.00 0.00 51 1020.8
20260502200403 64 0 0.0 0.0 0.00 0.00 0.00 51 1020.8
20260502200215 64 0 0.0 0.0 0.00 0.00 0.00 50 1020.8
20260502195815 64 223 0.0 0.9 0.00 0.00 0.00 49 1020.9
20260502195203 64 223 0.9 1.7 0.00 0.00 0.00 49 1020.8
20260502194803 65 225 0.9 1.7 0.00 0.00 0.00 49 1020.8
20260502194613 65 225 0.9 1.7 0.00 0.00 0.00 48 1020.7
20260502194217 65 225 0.9 1.7 0.00 0.00 0.00 48 1020.7
20260502193603 65 224 0.9 2.6 0.00 0.00 0.00 48 1020.8
20260502193203 66 224 0.9 2.6 0.00 0.00 0.00 47 1020.7
20260502193015 66 224 0.9 1.7 0.00 0.00 0.00 47 1020.8
20260502192403 66 223 0.9 1.7 0.00 0.00 0.00 47 1020.8
20260502192003 66 221 1.7 2.6 0.00 0.00 0.00 47 1020.7
20260502191603 66 218 0.9 2.6 0.00 0.00 0.00 47 1020.7
20260502191203 66 218 1.7 2.6 0.00 0.00 0.00 46 1020.6
20260502190803 66 212 1.7 1.7 0.00 0.00 0.00 46 1020.6
20260502190403 67 207 1.7 2.6 0.00 0.00 0.00 46 1020.6
20260502190216 67 205 1.7 2.6 0.00 0.00 0.00 45 1020.7
20260502185603 67 205 1.7 3.5 0.00 0.00 0.00 45 1020.6
20260502185203 67 205 1.7 3.5 0.00 0.00 0.00 44 1020.6
20260502184803 67 202 1.7 2.6 0.00 0.00 0.00 45 1020.6
20260502184403 67 201 1.7 2.6 0.00 0.00 0.00 45 1020.5
20260502184003 68 200 1.7 2.6 0.00 0.00 0.00 44 1020.5
20260502183603 68 204 1.7 2.6 0.00 0.00 0.00 43 1020.7
20260502183203 68 208 2.6 3.5 0.00 0.00 0.00 43 1020.5
20260502182403 69 206 2.6 3.5 0.00 0.00 0.00 43 1020.6
20260502182215 69 205 2.6 3.5 0.00 0.00 0.00 43 1020.5
20260502181814 69 207 2.6 3.5 0.00 0.00 0.00 43 1020.4
20260502181203 70 208 2.6 2.6 0.00 0.00 0.00 42 1020.7
20260502180803 70 209 2.6 3.5 0.00 0.00 0.00 41 1020.5
20260502180403 70 207 2.6 3.5 0.00 0.00 0.00 41 1020.4
20260502180217 71 206 2.6 5.2 0.00 0.00 0.00 41 1020.5
20260502170403 74 247 3.5 7.8 0.00 0.00 0.00 36 1020.5
20260502164003 75 207 3.5 6.1 0.00 0.00 0.00 34 1020.7
20260502163603 75 199 4.3 7.8 0.00 0.00 0.00 35 1020.8
20260502163203 75 200 4.3 7.8 0.00 0.00 0.00 34 1020.7
20260502163017 75 201 4.3 7.8 0.00 0.00 0.00 33 1020.7
20260502162403 75 210 4.3 7.0 0.00 0.00 0.00 34 1020.9
20260502162003 75 221 4.3 7.8 0.00 0.00 0.00 34 1020.9
20260502161603 75 233 3.5 7.8 0.00 0.00 0.00 34 1021.0
20260502161203 75 239 4.3 8.7 0.00 0.00 0.00 33 1020.8
20260502160803 75 239 3.5 8.7 0.00 0.00 0.00 34 1020.9
20260502160403 76 233 4.3 7.0 0.00 0.00 0.00 34 1021.0
20260502152003 76 233 4.3 11.3 0.00 0.00 0.00 33 1021.4
20260502151603 76 236 3.5 7.0 0.00 0.00 0.00 33 1021.5
20260502151203 76 213 3.5 5.2 0.00 0.00 0.00 34 1021.5
20260502150803 76 228 4.3 13.0 0.00 0.00 0.00 32 1021.5
20260502150614 76 231 5.2 13.0 0.00 0.00 0.00 33 1021.8
20260502150213 76 246 5.2 13.0 0.00 0.00 0.00 33 1021.6
20260502130615 76 196 3.5 7.8 0.00 0.00 0.00 32 1023.3
20260502123816 77 217 4.3 7.8 0.00 0.00 0.00 34 1023.3
20260502123203 76 184 2.6 7.8 0.00 0.00 0.00 32 1023.4
20260502122803 77 238 2.6 6.1 0.00 0.00 0.00 31 1023.5
20260502122403 75 241 3.5 7.8 0.00 0.00 0.00 32 1023.6
20260502122003 75 240 5.2 8.7 0.00 0.00 0.00 33 1023.7
20260502121603 75 224 5.2 8.7 0.00 0.00 0.00 34 1023.6
20260502121203 75 184 4.3 8.7 0.00 0.00 0.00 32 1023.6
20260502120803 74 161 4.3 8.7 0.00 0.00 0.00 34 1023.7
20260502120403 75 178 3.5 8.7 0.00 0.00 0.00 32 1023.8
20260502120215 75 202 4.3 8.7 0.00 0.00 0.00 32 1023.9
20260502115603 74 234 5.2 11.3 0.00 0.00 0.00 33 1023.7
20260502115203 74 209 6.1 11.3 0.00 0.00 0.00 32 1024.1
20260502114803 75 209 5.2 11.3 0.00 0.00 0.00 33 1023.9
20260502114403 75 233 5.2 9.6 0.00 0.00 0.00 32 1024.1
20260502114003 74 237 5.2 9.6 0.00 0.00 0.00 33 1024.1
20260502113603 75 229 4.3 9.6 0.00 0.00 0.00 32 1024.1
20260502113203 75 224 3.5 7.8 0.00 0.00 0.00 32 1024.2
20260502112803 75 180 3.5 7.8 0.00 0.00 0.00 32 1024.4
20260502112403 74 159 4.3 7.8 0.00 0.00 0.00 33 1024.2
20260502112003 74 174 5.2 9.6 0.00 0.00 0.00 34 1024.2
20260502111813 74 192 5.2 9.6 0.00 0.00 0.00 33 1024.4
20260502111203 74 239 5.2 8.7 0.00 0.00 0.00 34 1024.3
20260502110803 74 230 4.3 8.7 0.00 0.00 0.00 32 1024.6
20260502110403 74 228 4.3 7.8 0.00 0.00 0.00 32 1024.6
20260502110216 74 232 4.3 8.7 0.00 0.00 0.00 34 1024.6
20260502105603 74 247 3.5 8.7 0.00 0.00 0.00 34 1024.6
20260502105203 76 248 2.6 7.8 0.00 0.00 0.00 31 1024.9
20260502104803 76 247 1.7 7.0 0.00 0.00 0.00 32 1024.8
20260502104403 75 246 2.6 7.0 0.00 0.00 0.00 34 1024.8
20260502104003 74 259 4.3 9.6 0.00 0.00 0.00 33 1025.1
20260502103603 74 256 4.3 9.6 0.00 0.00 0.00 34 1024.9
20260502103417 73 256 5.2 9.6 0.00 0.00 0.00 33 1024.8
20260502103016 73 257 3.5 8.7 0.00 0.00 0.00 34 1025.2
20260502102615 75 263 3.5 7.8 0.00 0.00 0.00 32 1024.9
20260502102003 73 223 4.3 9.6 0.00 0.00 0.00 36 1025.1
20260502101203 73 196 3.5 9.6 0.00 0.00 0.00 34 1025.2
20260502100803 73 196 3.5 7.8 0.00 0.00 0.00 34 1025.2
20260502100403 73 192 4.3 7.8 0.00 0.00 0.00 36 1025.2
20260502091203 73 209 1.7 5.2 0.00 0.00 0.00 36 1025.6
20260502091014 72 216 1.7 5.2 0.00 0.00 0.00 37 1025.9
20260502090613 73 242 1.7 5.2 0.00 0.00 0.00 35 1025.7
20260502071416 64 17 0.9 2.6 0.00 0.00 0.00 49 1026.4
20260502070803 63 3 1.7 3.5 0.00 0.00 0.00 51 1026.3
20260502070615 63 1 1.7 3.5 0.00 0.00 0.00 50 1026.3
20260502070214 62 5 1.7 5.2 0.00 0.00 0.00 51 1026.2
20260502065603 62 9 1.7 5.2 0.00 0.00 0.00 52 1026.2
20260502065413 61 6 1.7 3.5 0.00 0.00 0.00 53 1026.3
20260502064803 61 11 1.7 3.5 0.00 0.00 0.00 54 1026.3
20260502064403 61 5 1.7 2.6 0.00 0.00 0.00 54 1026.5
20260502064003 61 1 1.7 3.5 0.00 0.00 0.00 55 1026.4
20260502063603 61 354 0.9 3.5 0.00 0.00 0.00 53 1026.4
20260502063203 61 357 0.9 3.5 0.00 0.00 0.00 54 1026.4
20260502062803 60 352 0.9 2.6 0.00 0.00 0.00 54 1026.4
20260502062403 60 353 0.9 2.6 0.00 0.00 0.00 53 1026.5
20260502062003 60 349 0.9 1.7 0.00 0.00 0.00 52 1026.4
20260502061603 60 350 0.0 1.7 0.00 0.00 0.00 53 1026.3
20260502060803 60 330 0.0 1.7 0.00 0.00 0.00 53 1026.3
20260502060403 59 323 0.0 1.7 0.00 0.00 0.00 53 1026.2
20260502060003 59 308 0.0 1.7 0.00 0.00 0.00 53 1026.2
20260502055814 59 304 0.0 1.7 0.00 0.00 0.00 53 1026.3
20260502055413 59 0 0.0 0.0 0.00 0.00 0.00 55 1026.3
20260502055013 58 289 0.0 0.9 0.00 0.00 0.00 56 1026.2
20260502054403 57 289 0.0 0.9 0.00 0.00 0.00 57 1026.3
20260502054217 57 289 0.0 0.9 0.00 0.00 0.00 57 1026.2
20260502053603 56 283 0.0 0.9 0.00 0.00 0.00 57 1026.1
20260502053203 56 283 0.0 0.9 0.00 0.00 0.00 58 1026.2
20260502052803 55 281 0.0 1.7 0.00 0.00 0.00 59 1026.3
20260502052403 55 283 0.0 1.7 0.00 0.00 0.00 58 1026.2
20260502052003 55 287 0.0 1.7 0.00 0.00 0.00 59 1026.2
20260502051813 55 296 0.0 0.9 0.00 0.00 0.00 60 1026.2
20260502051203 55 0 0.0 0.0 0.00 0.00 0.00 60 1026.2
20260502050803 54 0 0.0 0.0 0.00 0.00 0.00 62 1026.0
20260502050403 53 306 0.0 0.9 0.00 0.00 0.00 63 1026.2
20260502050004 53 313 0.0 0.9 0.00 0.00 0.00 63 1026.2
20260502045815 52 314 0.0 0.9 0.00 0.00 0.00 64 1026.2
20260502045203 51 318 0.0 0.9 0.00 0.00 0.00 65 1026.1
20260502044803 51 317 0.0 0.9 0.00 0.00 0.00 67 1026.0
20260502044403 50 316 0.0 0.9 0.00 0.00 0.00 68 1025.9
20260502044003 50 277 0.0 0.9 0.00 0.00 0.00 69 1025.8
20260502043603 49 277 0.0 0.9 0.00 0.00 0.00 70 1025.8
20260502043203 48 277 0.0 0.9 0.00 0.00 0.00 71 1025.9
20260502042803 48 0 0.0 0.0 0.00 0.00 0.00 72 1026.0
20260502042403 47 0 0.0 0.0 0.00 0.00 0.00 72 1025.9
20260502042003 47 0 0.0 0.0 0.00 0.00 0.00 73 1025.9
20260502041603 47 0 0.0 0.0 0.00 0.00 0.00 72 1026.0
20260502041203 47 275 0.0 0.9 0.00 0.00 0.00 72 1026.0
20260502041017 47 274 0.0 0.9 0.00 0.00 0.00 72 1025.9
20260502040403 47 272 0.0 0.9 0.00 0.00 0.00 73 1026.0
20260502040003 47 274 0.9 1.7 0.00 0.00 0.00 74 1026.1
20260502035603 47 274 0.9 1.7 0.00 0.00 0.00 74 1025.9
20260502035203 46 279 0.0 1.7 0.00 0.00 0.00 76 1025.9
20260502034803 46 0 0.0 0.0 0.00 0.00 0.00 76 1025.8
20260502034403 46 0 0.0 0.0 0.00 0.00 0.00 75 1025.8
20260502034003 46 0 0.0 0.0 0.00 0.00 0.00 74 1026.1
20260502033817 46 0 0.0 0.0 0.00 0.00 0.00 74 1026.0
20260502033417 47 0 0.0 0.0 0.00 0.00 0.00 73 1025.9
20260502033016 47 0 0.0 0.0 0.00 0.00 0.00 73 1025.9
20260502032615 46 0 0.0 0.0 0.00 0.00 0.00 74 1025.9
20260502032003 46 0 0.0 0.0 0.00 0.00 0.00 74 1025.9
20260502031814 46 0 0.0 0.0 0.00 0.00 0.00 75 1026.0
20260502031203 45 0 0.0 0.0 0.00 0.00 0.00 77 1026.1
20260502030803 46 0 0.0 0.0 0.00 0.00 0.00 74 1026.1
20260502030617 46 0 0.0 0.0 0.00 0.00 0.00 74 1026.1
20260502030003 47 0 0.0 0.0 0.00 0.00 0.00 73 1025.9
20260502025603 47 0 0.0 0.0 0.00 0.00 0.00 73 1025.9
20260502025203 47 0 0.0 0.0 0.00 0.00 0.00 74 1026.0
20260502024803 46 0 0.0 0.0 0.00 0.00 0.00 74 1026.0
20260502024403 46 0 0.0 0.0 0.00 0.00 0.00 75 1026.1
20260502024003 46 0 0.0 0.0 0.00 0.00 0.00 74 1026.1
20260502023603 46 0 0.0 0.0 0.00 0.00 0.00 74 1026.1
20260502023203 46 0 0.0 0.0 0.00 0.00 0.00 74 1026.1
20260502022803 46 0 0.0 0.0 0.00 0.00 0.00 74 1026.0
20260502022616 46 0 0.0 0.0 0.00 0.00 0.00 74 1026.0